DW5056 Weather Reports


time (UTC)temp
C
wind
direction
speed
KPH
gust
KPH
rain 1hr
cm
rain 24hr
cm
rain mn
cm
humidity
%
barometer
mb
20260507074342 12 314 4.8 8.0 0.00 0.00 0.00 74 1015.9
20260507073837 12 319 1.6 8.0 0.00 0.00 0.00 76 1015.8
20260507073331 12 308 3.2 9.7 0.00 0.00 0.00 75 1015.8
20260507072832 12 353 4.8 9.7 0.00 0.00 0.00 76 1015.8
20260507072319 12 340 6.4 9.7 0.00 0.00 0.00 76 1015.8
20260507071822 11 266 1.6 6.4 0.00 0.00 0.00 78 1015.7
20260507071317 11 348 3.2 6.4 0.00 0.00 0.00 77 1015.7
20260507070832 11 13 3.2 6.4 0.00 0.00 0.00 77 1015.6
20260507070354 11 355 1.6 4.8 0.00 0.00 0.00 79 1015.6
20260507065815 11 15 0.0 3.2 0.00 0.00 0.00 80 1015.6
20260507065328 11 65 1.6 4.8 0.00 0.00 0.00 80 1015.6
20260507064823 11 15 3.2 8.0 0.00 0.00 0.00 80 1015.6
20260507064325 11 236 1.6 8.0 0.00 0.00 0.00 81 1015.7
20260507063832 10 37 3.2 9.7 0.00 0.00 0.00 81 1015.6
20260507063335 10 21 6.4 9.7 0.00 0.00 0.00 81 1015.7
20260507062858 10 302 3.2 11.3 0.00 0.00 0.00 81 1015.6
20260507062325 10 351 8.0 11.3 0.00 0.00 0.00 81 1015.6
20260507061824 10 317 4.8 11.3 0.00 0.00 0.00 82 1015.5
20260507061318 10 314 4.8 9.7 0.00 0.00 0.00 82 1015.5
20260507060831 10 339 6.4 9.7 0.00 0.00 0.00 83 1015.4
20260507060327 10 6 3.2 4.8 0.00 0.00 0.00 84 1015.4
20260507055819 10 347 3.2 4.8 0.00 0.00 0.00 85 1015.3
20260507055325 10 349 0.0 4.8 0.00 0.00 0.00 85 1015.3
20260507054827 10 33 3.2 6.4 0.00 0.00 0.00 85 1015.3
20260507054321 10 6 3.2 6.4 0.00 0.00 0.00 85 1015.3
20260507053817 10 11 1.6 3.2 0.00 0.00 0.00 85 1015.2
20260507053400 10 27 0.0 3.2 0.00 0.00 0.00 85 1015.2
20260507052813 10 27 1.6 3.2 0.00 0.00 0.00 85 1015.1
20260507052348 10 353 1.6 8.0 0.00 0.00 0.00 85 1015.1
20260507051822 10 343 1.6 9.7 0.00 0.00 0.00 85 1015.0
20260507051324 10 353 4.8 9.7 0.00 0.00 0.00 85 1015.0
20260507050813 10 330 4.8 9.7 0.00 0.00 0.00 86 1014.9
20260507050333 10 359 1.6 4.8 0.00 0.00 0.00 86 1014.8
20260507045825 10 27 1.6 4.8 0.00 0.00 0.00 86 1014.8
20260507045331 10 49 0.0 1.6 0.00 0.00 0.00 86 1014.8
20260507044852 10 49 0.0 0.0 0.00 0.00 0.00 86 1014.6
20260507044334 10 49 0.0 0.0 0.00 0.00 0.00 86 1014.6
20260507043819 10 50 0.0 0.0 0.00 0.00 0.00 86 1014.6
20260507043340 10 49 0.0 0.0 0.00 0.00 0.00 86 1014.5
20260507042816 10 50 0.0 1.6 0.00 0.00 0.00 85 1014.6
20260507042327 10 49 0.0 1.6 0.00 0.00 0.00 85 1014.5
20260507041849 10 49 0.0 1.6 0.00 0.00 0.00 85 1014.4
20260507041324 10 50 0.0 3.2 0.00 0.00 0.00 85 1014.3
20260507040818 10 49 1.6 3.2 0.00 0.00 0.00 85 1014.3
20260507040315 10 53 1.6 3.2 0.00 0.00 0.00 85 1014.2
20260507035825 10 53 0.0 3.2 0.00 0.00 0.00 85 1014.2
20260507035315 10 52 0.0 3.2 0.00 0.00 0.00 85 1014.2
20260507034816 10 52 0.0 1.6 0.00 0.00 0.00 84 1014.1
20260507034329 10 58 0.0 3.2 0.00 0.00 0.00 84 1014.2
20260507033824 10 58 0.0 4.8 0.00 0.00 0.00 84 1014.1
20260507033318 10 61 1.6 6.4 0.00 0.00 0.00 84 1014.1
20260507032818 10 8 1.6 6.4 0.00 0.00 0.00 84 1014.0
20260507032348 10 341 1.6 6.4 0.00 0.00 0.00 84 1014.0
20260507031822 10 342 1.6 6.4 0.00 0.00 0.00 84 1014.0
20260507031323 10 70 3.2 6.4 0.00 0.00 0.00 83 1014.0
20260507030830 10 353 3.2 6.4 0.00 0.00 0.00 83 1014.0
20260507030332 10 356 1.6 8.0 0.00 0.00 0.00 83 1014.0
20260507025817 10 49 3.2 8.0 0.00 0.00 0.00 83 1013.9
20260507025330 10 13 0.0 4.8 0.00 0.00 0.00 82 1013.9
20260507024847 10 360 1.6 8.0 0.00 0.00 0.00 82 1013.9
20260507024342 10 345 1.6 6.4 0.00 0.00 0.00 82 1013.9
20260507023818 10 347 3.2 6.4 0.00 0.00 0.00 82 1013.9
20260507023314 10 6 1.6 6.4 0.00 0.00 0.00 81 1013.9
20260507022816 11 347 1.6 6.4 0.00 0.00 0.00 81 1013.8
20260507022330 11 346 0.0 6.4 0.00 0.00 0.00 81 1013.8
20260507021823 11 338 1.6 6.4 0.00 0.00 0.00 81 1013.7
20260507021319 11 335 1.6 4.8 0.00 0.00 0.00 80 1013.7
20260507020814 11 33 0.0 4.8 0.00 0.00 0.00 80 1013.7
20260507020334 11 344 1.6 4.8 0.00 0.00 0.00 80 1013.6
20260507015901 11 344 0.0 8.0 0.00 0.00 0.00 80 1013.6
20260507015323 11 358 3.2 8.0 0.00 0.00 0.00 80 1013.5
20260507014841 11 4 1.6 6.4 0.00 0.00 0.00 80 1013.4
20260507014343 11 330 0.0 8.0 0.00 0.00 0.00 80 1013.3
20260507013828 11 330 1.6 8.0 0.00 0.00 0.00 80 1013.4
20260507013328 11 347 0.0 3.2 0.00 0.00 0.00 80 1013.4
20260507012823 11 339 0.0 3.2 0.00 0.00 0.00 79 1013.4
20260507012316 11 325 0.0 4.8 0.00 0.00 0.00 79 1013.4
20260507011839 11 359 1.6 4.8 0.00 0.00 0.00 79 1013.4
20260507011315 11 332 1.6 4.8 0.00 0.00 0.00 78 1013.4
20260507010848 11 44 0.0 1.6 0.00 0.00 0.00 78 1013.4
20260507010321 11 44 0.0 4.8 0.00 0.00 0.00 78 1013.4
20260507005827 11 44 1.6 4.8 0.00 0.00 0.00 77 1013.4
20260507005315 11 69 0.0 3.2 0.00 0.00 0.00 77 1013.4
20260507004817 11 25 0.0 4.8 0.00 0.00 0.00 77 1013.3
20260507004313 11 58 0.0 6.4 0.00 0.00 0.00 77 1013.3
20260507003826 11 353 1.6 8.0 0.00 0.00 0.00 77 1013.3
20260507003322 11 341 3.2 8.0 0.00 0.00 0.00 78 1013.3
20260507002823 11 336 0.0 6.4 0.00 0.00 0.00 78 1013.3
20260507002324 11 308 1.6 6.4 0.00 0.00 0.00 78 1013.2
20260507001827 11 328 1.6 4.8 0.00 0.00 0.00 78 1013.2
20260507001321 11 8 0.0 6.4 0.00 0.00 0.00 79 1013.2
20260507000817 11 268 0.0 0.0 0.00 0.00 0.00 80 1013.2
20260507000337 11 269 0.0 0.0 0.00 0.00 0.00 80 1013.2
20260506235825 10 269 0.0 0.0 0.00 0.00 0.00 80 1013.2
20260506235323 11 268 0.0 0.0 0.00 0.00 0.00 80 1013.2
20260506234831 11 269 0.0 0.0 0.00 0.00 0.00 79 1013.2
20260506234334 11 269 0.0 0.0 0.00 0.00 0.00 80 1013.2
20260506233825 11 268 0.0 0.0 0.00 0.00 0.00 79 1013.2
20260506233326 11 269 0.0 1.6 0.00 0.00 0.00 79 1013.2
20260506232820 11 304 0.0 1.6 0.00 0.00 0.00 79 1013.1
20260506232332 11 69 0.0 0.0 0.00 0.00 0.00 79 1013.0
20260506231822 11 69 0.0 0.0 0.00 0.00 0.00 78 1013.0
20260506231324 11 70 0.0 0.0 0.00 0.00 0.00 77 1012.9
20260506230859 11 69 0.0 0.0 0.00 0.00 0.00 78 1012.9
20260506230400 11 69 0.0 0.0 0.00 0.00 0.00 77 1012.9
20260506225824 11 69 0.0 0.0 0.00 0.00 0.00 77 1012.9
20260506225318 11 69 0.0 0.0 0.00 0.00 0.00 77 1012.9
20260506224821 10 70 0.0 0.0 0.00 0.00 0.00 76 1012.9
20260506224344 10 69 0.0 0.0 0.00 0.00 0.00 77 1012.8
20260506223838 11 69 0.0 0.0 0.00 0.00 0.00 76 1012.9
20260506223332 11 69 0.0 0.0 0.00 0.00 0.00 76 1012.8
20260506222828 11 70 0.0 0.0 0.00 0.00 0.00 76 1012.8
20260506222322 11 69 0.0 0.0 0.00 0.00 0.00 76 1012.8
20260506221817 11 69 0.0 0.0 0.00 0.00 0.00 76 1012.7
20260506221320 11 69 0.0 0.0 0.00 0.00 0.00 75 1012.6
20260506220826 11 69 0.0 0.0 0.00 0.00 0.00 75 1012.7
20260506220341 11 69 0.0 0.0 0.00 0.00 0.00 75 1012.7
20260506215815 11 70 0.0 0.0 0.00 0.00 0.00 75 1012.7
20260506215328 11 69 0.0 0.0 0.00 0.00 0.00 75 1012.7
20260506214823 11 69 0.0 0.0 0.00 0.00 0.00 75 1012.7
20260506214342 11 69 0.0 1.6 0.00 0.00 0.00 75 1012.6
20260506213825 11 69 0.0 1.6 0.00 0.00 0.00 75 1012.6
20260506213328 11 72 0.0 1.6 0.00 0.00 0.00 76 1012.6
20260506212824 11 72 0.0 1.6 0.00 0.00 0.00 77 1012.6
20260506212339 11 96 0.0 1.6 0.00 0.00 0.00 77 1012.5
20260506211833 11 317 0.0 1.6 0.00 0.00 0.00 77 1012.5
20260506211334 11 101 0.0 0.0 0.00 0.00 0.00 77 1012.4
20260506210821 11 101 0.0 0.0 0.00 0.00 0.00 77 1012.5
20260506210316 11 101 0.0 0.0 0.00 0.00 0.00 77 1012.5
20260506205829 11 101 0.0 0.0 0.00 0.00 0.00 76 1012.5
20260506205323 11 100 0.0 0.0 0.00 0.00 0.00 76 1012.4
20260506204818 11 101 0.0 1.6 0.00 0.00 0.00 76 1012.3
20260506204315 11 37 0.0 1.6 0.00 0.00 0.00 76 1012.2
20260506203827 11 37 0.0 0.0 0.00 0.00 0.00 76 1012.2
20260506203328 11 37 0.0 0.0 0.00 0.00 0.00 76 1012.1
20260506202824 11 38 0.0 0.0 0.00 0.00 0.00 75 1012.1
20260506202338 11 37 0.0 0.0 0.00 0.00 0.00 74 1012.1
20260506201831 11 37 0.0 1.6 0.00 0.00 0.00 73 1012.1
20260506201330 11 39 0.0 1.6 0.00 0.00 0.00 73 1012.1
20260506200816 11 360 0.0 3.2 0.00 0.00 0.00 74 1012.0
20260506200335 11 41 1.6 3.2 0.00 0.00 0.00 73 1012.0
20260506195828 11 261 0.0 1.6 0.00 0.00 0.00 74 1012.0
20260506195315 11 260 0.0 1.6 0.00 0.00 0.00 73 1011.9
20260506194829 11 261 0.0 1.6 0.00 0.00 0.00 73 1011.9
20260506194325 11 260 0.0 1.6 0.00 0.00 0.00 73 1011.9
20260506193817 11 260 0.0 1.6 0.00 0.00 0.00 72 1011.9
20260506193314 11 260 0.0 1.6 0.00 0.00 0.00 71 1011.9
20260506192836 12 260 0.0 1.6 0.00 0.00 0.00 71 1011.8
20260506192319 12 41 0.0 3.2 0.00 0.00 0.00 71 1011.7
20260506191819 12 41 1.6 3.2 0.00 0.00 0.00 70 1011.7
20260506191316 12 94 0.0 1.6 0.00 0.00 0.00 70 1011.6
20260506190828 12 6 0.0 6.4 0.00 0.00 0.00 69 1011.6
20260506190331 12 121 3.2 6.4 0.00 0.00 0.00 69 1011.5
20260506185837 12 117 1.6 9.7 0.00 0.00 0.00 69 1011.5
20260506185358 12 35 3.2 9.7 0.00 0.00 0.00 68 1011.4
20260506184831 12 42 3.2 19.3 0.00 0.00 0.00 69 1011.4
20260506184328 12 54 3.2 19.3 0.00 0.00 0.00 68 1011.3
20260506183822 12 347 1.6 16.1 0.00 0.00 0.00 69 1011.3
20260506183318 12 63 4.8 17.7 0.00 0.00 0.00 69 1011.3
20260506182812 12 79 6.4 17.7 0.00 0.00 0.00 69 1011.2
20260506182328 12 179 4.8 14.5 0.00 0.00 0.00 68 1011.1
20260506181829 12 143 3.2 12.9 0.00 0.00 0.00 68 1011.1
20260506181323 12 108 1.6 14.5 0.00 0.00 0.00 67 1011.0
20260506180818 12 13 3.2 14.5 0.00 0.00 0.00 67 1010.8
20260506180313 12 72 4.8 19.3 0.00 0.00 0.00 66 1010.7
20260506175844 12 330 9.7 20.9 0.00 0.00 0.00 65 1010.7
20260506175316 12 56 3.2 16.1 0.00 0.00 0.00 65 1010.5
20260506174813 12 74 9.7 17.7 0.00 0.00 0.00 62 1010.5
20260506174335 13 27 11.3 19.3 0.00 0.00 0.00 62 1010.5
20260506173821 13 84 4.8 17.7 0.00 0.00 0.00 63 1010.4
20260506173323 13 50 9.7 17.7 0.00 0.00 0.00 62 1010.3
20260506172315 13 39 11.3 17.7 0.00 0.00 0.00 62 1010.2
20260506171818 13 335 11.3 17.7 0.00 0.00 0.00 61 1010.1
20260506171314 13 75 6.4 17.7 0.00 0.00 0.00 61 1010.0
20260506170847 13 59 11.3 17.7 0.00 0.00 0.00 60 1010.0
20260506170328 13 53 4.8 20.9 0.00 0.00 0.00 60 1010.0
20260506165839 13 27 11.3 20.9 0.00 0.00 0.00 59 1010.0
20260506165352 13 34 9.7 19.3 0.00 0.00 0.00 60 1009.9
20260506164827 13 44 6.4 17.7 0.00 0.00 0.00 61 1009.9
20260506164322 13 318 9.7 19.3 0.00 0.00 0.00 61 1009.9
20260506163816 13 348 11.3 19.3 0.00 0.00 0.00 61 1009.9
20260506163338 13 21 8.0 20.9 0.00 0.00 0.00 62 1009.8
20260506162814 13 30 9.7 20.9 0.00 0.00 0.00 61 1009.8
20260506162321 13 33 9.7 19.3 0.00 0.00 0.00 61 1009.8
20260506161823 14 25 3.2 12.9 0.00 0.00 0.00 63 1009.8
20260506161346 14 33 8.0 12.9 0.00 0.00 0.00 63 1009.6
20260506160839 14 45 6.4 14.5 0.00 0.00 0.00 64 1009.7
20260506160312 14 316 6.4 16.1 0.00 0.00 0.00 64 1009.6
20260506155816 14 335 8.0 16.1 0.00 0.00 0.00 63 1009.6
20260506155331 14 27 6.4 14.5 0.00 0.00 0.00 63 1009.6
20260506154833 14 24 6.4 14.5 0.00 0.00 0.00 63 1009.6
20260506154328 15 41 9.7 17.7 0.00 0.00 0.00 62 1009.6
20260506153813 15 111 4.8 16.1 0.00 0.00 0.00 63 1009.6
20260506153316 15 11 4.8 12.9 0.00 0.00 0.00 62 1009.6
20260506152829 15 321 4.8 16.1 0.00 0.00 0.00 61 1009.6
20260506152324 15 341 9.7 19.3 0.00 0.00 0.00 60 1009.6
20260506151829 15 16 11.3 17.7 0.00 0.00 0.00 61 1009.5
20260506151320 15 354 6.4 17.7 0.00 0.00 0.00 63 1009.5
20260506150824 15 61 8.0 17.7 0.00 0.00 0.00 63 1009.5
20260506150319 15 345 6.4 17.7 0.00 0.00 0.00 64 1009.5
20260506145814 14 312 4.8 12.9 0.00 0.00 0.00 64 1009.5
20260506145320 14 268 8.0 12.9 0.00 0.00 0.00 63 1009.6
20260506144823 15 347 4.8 11.3 0.00 0.00 0.00 63 1009.5
20260506144339 15 46 3.2 14.5 0.00 0.00 0.00 62 1009.5
20260506143812 15 47 8.0 14.5 0.00 0.00 0.00 60 1009.5
20260506143335 15 358 8.0 16.1 0.00 0.00 0.00 59 1009.5
20260506142829 15 25 8.0 16.1 0.00 0.00 0.00 59 1009.5
20260506142324 15 1 6.4 16.1 0.00 0.00 0.00 60 1009.5
20260506141817 14 49 8.0 16.1 0.00 0.00 0.00 60 1009.5
20260506141320 14 290 4.8 19.3 0.00 0.00 0.00 60 1009.5
20260506140841 14 33 8.0 19.3 0.00 0.00 0.00 58 1009.5
20260506140334 14 300 9.7 17.7 0.00 0.00 0.00 61 1009.5
20260506135828 14 298 11.3 17.7 0.00 0.00 0.00 63 1009.6
20260506135325 14 78 6.4 17.7 0.00 0.00 0.00 64 1009.5
20260506134817 14 312 8.0 17.7 0.00 0.00 0.00 65 1009.5
20260506134340 14 354 8.0 16.1 0.00 0.00 0.00 66 1009.5
20260506133820 14 319 9.7 16.1 0.00 0.00 0.00 65 1009.5
20260506133312 15 319 3.2 16.1 0.00 0.00 0.00 65 1009.4
20260506132814 15 18 8.0 16.1 0.00 0.00 0.00 63 1009.5
20260506131827 15 79 11.3 24.1 0.00 0.00 0.00 61 1009.4
20260506131330 15 323 12.9 24.1 0.00 0.00 0.00 62 1009.4
20260506130817 15 25 4.8 14.5 0.00 0.00 0.00 63 1009.3
20260506130335 15 40 8.0 16.1 0.00 0.00 0.00 64 1009.3
20260506125848 15 309 6.4 17.7 0.00 0.00 0.00 64 1009.2
20260506125315 15 338 9.7 17.7 0.00 0.00 0.00 63 1009.2
20260506124835 15 283 6.4 17.7 0.00 0.00 0.00 63 1009.2
20260506124348 15 341 9.7 19.3 0.00 0.00 0.00 63 1009.2
20260506123817 15 101 6.4 17.7 0.00 0.00 0.00 64 1009.2
20260506123337 15 338 8.0 14.5 0.00 0.00 0.00 65 1009.2
20260506122859 15 19 4.8 14.5 0.00 0.00 0.00 65 1009.2
20260506122326 14 24 4.8 14.5 0.00 0.00 0.00 66 1009.1
20260506121826 14 305 8.0 16.1 0.00 0.00 0.00 67 1009.1
20260506121320 14 354 8.0 16.1 0.00 0.00 0.00 67 1009.1
20260506120816 14 46 6.4 17.7 0.00 0.00 0.00 69 1009.2
20260506120330 14 11 8.0 17.7 0.00 0.00 0.00 68 1009.1
20260506115836 15 318 9.7 20.9 0.00 0.00 0.00 67 1009.1
20260506115329 15 346 14.5 27.4 0.00 0.00 0.00 66 1009.0
20260506114821 15 85 12.9 27.4 0.00 0.00 0.00 66 1009.0
20260506114323 15 333 9.7 32.2 0.00 0.00 0.00 67 1009.0
20260506113829 15 21 9.7 32.2 0.00 0.00 0.00 67 1009.0
20260506113330 15 300 8.0 24.1 0.00 0.00 0.00 66 1009.0
20260506112826 15 336 11.3 22.5 0.00 0.00 0.00 67 1009.0
20260506112319 15 1 9.7 22.5 0.00 0.00 0.00 67 1008.9
20260506111814 15 11 6.4 22.5 0.00 0.00 0.00 69 1008.9
20260506111336 15 360 11.3 22.5 0.00 0.00 0.00 67 1009.0
20260506110823 15 33 9.7 16.1 0.00 0.00 0.00 69 1009.0
20260506110325 15 30 8.0 16.1 0.00 0.00 0.00 69 1009.1
20260506105826 15 148 6.4 19.3 0.00 0.00 0.00 69 1009.1
20260506105321 14 328 8.0 20.9 0.00 0.00 0.00 70 1009.1
20260506104816 14 305 9.7 22.5 0.00 0.00 0.00 71 1009.2
20260506104337 14 5 9.7 22.5 0.00 0.00 0.00 71 1009.1
20260506103824 14 298 8.0 22.5 0.00 0.00 0.00 72 1009.1
20260506103319 14 338 9.7 19.3 0.00 0.00 0.00 73 1009.2
20260506102819 14 19 9.7 19.3 0.00 0.00 0.00 74 1009.2
20260506102333 14 327 6.4 22.5 0.00 0.00 0.00 76 1009.1
20260506101825 13 38 9.7 22.5 0.00 0.00 0.00 76 1009.1
20260506101327 14 330 11.3 20.9 0.00 0.00 0.00 77 1009.1
20260506100813 13 322 4.8 20.9 0.00 0.00 0.00 78 1009.1
20260506100335 13 82 8.0 17.7 0.00 0.00 0.00 78 1009.0
20260506095818 13 75 9.7 17.7 0.00 0.00 0.00 79 1009.0
20260506095328 13 342 4.8 20.9 0.00 0.00 0.00 80 1009.0
20260506094823 13 267 3.2 20.9 0.00 0.00 0.00 80 1009.0
20260506094321 13 309 12.9 17.7 0.00 0.00 0.00 81 1009.0
20260506093828 13 274 8.0 16.1 0.00 0.00 0.00 82 1009.0
20260506093330 13 336 12.9 22.5 0.00 0.00 0.00 81 1009.0
20260506092821 12 319 9.7 22.5 0.00 0.00 0.00 82 1009.0
20260506092336 12 326 8.0 20.9 0.00 0.00 0.00 83 1009.0
20260506091814 12 103 6.4 17.7 0.00 0.00 0.00 84 1008.9
20260506091351 12 309 8.0 17.7 0.00 0.00 0.00 86 1008.9
20260506090818 12 3 8.0 17.7 0.00 0.00 0.00 90 1008.9
20260506090340 11 333 6.4 16.1 0.00 0.00 0.00 92 1008.9
20260506085852 11 70 6.4 12.9 0.00 0.00 0.00 92 1008.9
20260506085318 11 21 8.0 17.7 0.00 0.00 0.00 92 1008.9
20260506084813 10 324 6.4 17.7 0.00 0.00 0.00 92 1008.9
20260506084315 10 349 6.4 14.5 0.00 0.00 0.00 92 1008.8
20260506083823 10 22 8.0 17.7 0.00 0.00 0.00 92 1008.8
20260506083319 10 5 6.4 17.7 0.00 0.00 0.00 92 1008.8
20260506082840 10 1 8.0 17.7 0.00 0.00 0.00 92 1008.8
20260506082335 10 325 6.4 14.5 0.00 0.00 0.00 92 1008.8
20260506081830 10 346 6.4 16.1 0.00 0.00 0.00 92 1008.8
20260506081332 10 8 8.0 17.7 0.00 0.00 0.00 92 1008.8
20260506080816 10 25 9.7 16.1 0.00 0.00 0.00 92 1008.7
20260506080339 10 341 9.7 16.1 0.00 0.00 0.00 92 1008.7